Cedar Rapids, IA

2:13 AM CDT on October 23, 2019 (GMT -0500)
The Eastern Iowa Airport

Weather History for KCID - August, 2019

Change the Weather History Date:

Monday, August 19, 2019

  Actual Average Record
Temperature  
Mean Temperature 75 °F 71 °F  
Max Temperature 83 °F 81 °F 100 °F (1914)
Min Temperature 66 °F 61 °F 45 °F (2004)
Degree Days  
Heating Degree Days 0 0  
Month to date heating degree days 0 0  
Since 1 June heating degree days 11 33  
Since 1 July heating degree days 0 4  
Cooling Degree Days 10 6  
Month to date cooling degree days 128 133  
Year to date cooling degree days 630 600  
Since 1 June cooling degree days 602 551  
Growing Degree Days 24 (Base 50)    
Moisture  
Dew Point 67 °F    
Average Humidity 84    
Maximum Humidity 100    
Minimum Humidity 67    
Precipitation  
Precipitation 0.00 in 0.15 in 4.44 in (1924)
Month to date precipitation 3.14 2.78  
Year to date precipitation 25.73 23.60  
Sea Level Pressure  
Sea Level Pressure 29.98 in    
Wind  
Wind Speed 5 mph (NE)    
Max Wind Speed 12 mph    
Max Gust Speed 15 mph    
Visibility 10 miles    
Events      
T = Trace of Precipitation, MM = Missing Value Source: NWS Daily Summary

Daily Weather History Graph

Daily Weather History Graph

Search for Another Location

Airport or City:

Astronomy

Aug. 19, 2019 Rise Set
Actual Time 6:18 AM CDT 8:01 PM CDT
Civil Twilight 5:49 AM CDT 8:30 PM CDT
Nautical Twilight 5:13 AM CDT 9:06 PM CDT
Astronomical Twilight 4:34 AM CDT 9:45 PM CDT
Moon 10:19 PM CDT (8/19) 10:03 AM CDT (8/19)
Length of Visible Light 14h 41m
Length of Day
13h 42m
Waning Gibbous, 85% of the Moon is Illuminated
Aug 19
Waning Gibbous
Aug 23
Last Quarter
Aug 30
New
Sep 5
First Quarter
Sep 13
Full

Hourly Weather History & Observations

Time (CDT) Temp. Heat Index Dew Point Humidity Pressure Visibility Wind Dir Wind Speed Gust Speed Precip Events Conditions
12:52 AM 71.1 °F - 69.1 °F 93% 29.91 in 10.0 mi NNW 4.6 mph - N/A   Mostly Cloudy
1:52 AM 70.0 °F - 70.0 °F 100% 29.91 in 10.0 mi NNW 4.6 mph - N/A   Mostly Cloudy
2:52 AM 70.0 °F - 69.1 °F 97% 29.92 in 10.0 mi North 3.5 mph - N/A   Mostly Cloudy
3:52 AM 69.1 °F - 68.0 °F 96% 29.93 in 10.0 mi North 3.5 mph - N/A   Mostly Cloudy
4:52 AM 68.0 °F - 66.0 °F 93% 29.95 in 10.0 mi NNE 5.8 mph - N/A   Overcast
5:52 AM 66.9 °F - 63.0 °F 87% 29.96 in 10.0 mi NNE 6.9 mph - N/A   Mostly Cloudy
6:52 AM 66.9 °F - 62.1 °F 84% 29.97 in 10.0 mi NE 10.4 mph - N/A   Mostly Cloudy
7:52 AM 68.0 °F - 61.0 °F 78% 29.99 in 10.0 mi NNE 10.4 mph - N/A   Overcast
8:52 AM 70.0 °F - 61.0 °F 73% 29.99 in 10.0 mi ENE 10.4 mph - N/A   Overcast
9:52 AM 72.0 °F - 62.1 °F 71% 30.00 in 10.0 mi NE 8.1 mph - N/A   Overcast
10:52 AM 72.0 °F - 63.0 °F 73% 30.02 in 10.0 mi ENE 5.8 mph - N/A   Overcast
11:52 AM 75.9 °F - 64.9 °F 69% 30.01 in 10.0 mi East 6.9 mph - N/A   Overcast
12:52 PM 75.9 °F - 64.9 °F 69% 30.02 in 10.0 mi East 4.6 mph - N/A   Overcast
1:52 PM 79.0 °F - 68.0 °F 69% 30.01 in 10.0 mi East 8.1 mph - N/A   Scattered Clouds
2:52 PM 80.1 °F 82.7 °F 68.0 °F 67% 29.99 in 10.0 mi NE 8.1 mph - N/A   Clear
3:52 PM 81.0 °F 84.1 °F 69.1 °F 67% 29.99 in 10.0 mi Variable 4.6 mph - N/A   Partly Cloudy
4:52 PM 81.0 °F 83.8 °F 68.0 °F 65% 29.98 in 10.0 mi East 3.5 mph - N/A   Scattered Clouds
5:52 PM 79.0 °F - 70.0 °F 74% 29.98 in 10.0 mi ESE 4.6 mph - N/A   Scattered Clouds
6:52 PM 78.1 °F - 70.0 °F 76% 29.98 in 10.0 mi Calm Calm - N/A   Clear
7:52 PM 75.0 °F - 70.0 °F 84% 29.97 in 10.0 mi East 4.6 mph - N/A   Clear
8:52 PM 72.0 °F - 69.1 °F 91% 29.98 in 10.0 mi East 4.6 mph - N/A   Clear
9:52 PM 69.1 °F - 68.0 °F 96% 29.99 in 10.0 mi Calm Calm - N/A   Clear
10:52 PM 66.9 °F - 66.0 °F 97% 30.00 in 10.0 mi Calm Calm - N/A   Clear
11:52 PM 69.1 °F - 68.0 °F 96% 30.00 in 10.0 mi Calm Calm - N/A   Clear